Hourly Weather Rudenky-Honchari

Today, 20 April, Tuesday

Time Temperature Precipitation Wind Pressure Humidity
00:00 +7°C° 0 mm 2 mps 745 mmHg 79%
01:00 +7°C° 0 mm 2 mps 745 mmHg 80%
02:00 +7°C° 0 mm 2 mps 744 mmHg 80%
03:00 +7°C° 0 mm 2 mps 744 mmHg 82%
04:00 +7°C° 0 mm 2 mps 743 mmHg 84%
05:00 +7°C° 0 mm 2 mps 743 mmHg 86%
06:00 +7°C° 0.1 mm 3 mps 743 mmHg 87%
07:00 +8°C° 0.1 mm 3 mps 743 mmHg 87%
08:00 +8°C° 0.1 mm 3 mps 743 mmHg 87%
09:00 +8°C° 0.4 mm 3 mps 742 mmHg 88%
10:00 +8°C° 0.4 mm 3 mps 742 mmHg 88%
11:00 +9°C° 0.4 mm 3 mps 742 mmHg 89%
12:00 +9°C° 0.2 mm 3 mps 741 mmHg 87%
13:00 +10°C° 0.2 mm 3 mps 740 mmHg 84%
14:00 +10°C° 0.2 mm 4 mps 740 mmHg 82%
15:00 +10°C° 0.1 mm 4 mps 739 mmHg 84%
16:00 +10°C° 0.1 mm 4 mps 739 mmHg 86%
17:00 +8°C° 0.1 mm 4 mps 738 mmHg 88%
18:00 +8°C° 0.2 mm 4 mps 738 mmHg 89%
19:00 +8°C° 0.2 mm 4 mps 738 mmHg 91%
20:00 +7°C° 0.2 mm 4 mps 738 mmHg 93%
21:00 +7°C° 0.1 mm 4 mps 738 mmHg 94%
22:00 +7°C° 0.1 mm 4 mps 739 mmHg 94%
23:00 +6°C° 0.1 mm 4 mps 739 mmHg 95%

Tomorrow, 21 April, Wednesday

Time Temperature Precipitation Wind Pressure Humidity
00:00 +7°C° 0 mm 3 mps 739 mmHg 95%
01:00 +7°C° 0 mm 3 mps 739 mmHg 95%
02:00 +7°C° 0 mm 3 mps 740 mmHg 95%
03:00 +6°C° 0.1 mm 4 mps 740 mmHg 94%
04:00 +6°C° 0.1 mm 4 mps 740 mmHg 93%
05:00 +5°C° 0.1 mm 4 mps 741 mmHg 92%
06:00 +6°C° 0 mm 4 mps 741 mmHg 87%
07:00 +6°C° 0 mm 5 mps 742 mmHg 82%
08:00 +7°C° 0 mm 5 mps 743 mmHg 77%
09:00 +8°C° 0 mm 5 mps 743 mmHg 72%
10:00 +8°C° 0 mm 5 mps 743 mmHg 67%
11:00 +9°C° 0 mm 5 mps 744 mmHg 62%
12:00 +9°C° 0.1 mm 5 mps 744 mmHg 62%
13:00 +10°C° 0.1 mm 4 mps 744 mmHg 61%
14:00 +11°C° 0.1 mm 4 mps 744 mmHg 61%
15:00 +11°C° 0.3 mm 4 mps 744 mmHg 62%
16:00 +11°C° 0.3 mm 4 mps 745 mmHg 64%
17:00 +11°C° 0.3 mm 4 mps 745 mmHg 65%
18:00 +9°C° 0 mm 3 mps 745 mmHg 69%
19:00 +8°C° 0 mm 2 mps 745 mmHg 73%
20:00 +7°C° 0 mm 2 mps 746 mmHg 78%
21:00 +8°C° 0 mm 1 mps 746 mmHg 80%
22:00 +8°C° 0 mm 1 mps 746 mmHg 82%
23:00 +8°C° 0 mm 1 mps 746 mmHg 84%

Day after tomorrow, 22 April, Thursday

Time Temperature Precipitation Wind Pressure Humidity
00:00 +6°C° 0 mm 2 mps 746 mmHg 85%
01:00 +6°C° 0 mm 2 mps 746 mmHg 86%
02:00 +6°C° 0 mm 2 mps 746 mmHg 87%
03:00 +6°C° 0 mm 2 mps 747 mmHg 88%
04:00 +5°C° 0 mm 2 mps 747 mmHg 89%
05:00 +4°C° 0 mm 3 mps 747 mmHg 90%
06:00 +7°C° 0 mm 3 mps 748 mmHg 85%
07:00 +9°C° 0 mm 3 mps 748 mmHg 81%
08:00 +10°C° 0 mm 3 mps 748 mmHg 76%
09:00 +12°C° 0.1 mm 4 mps 748 mmHg 70%
10:00 +13°C° 0.1 mm 4 mps 749 mmHg 64%
11:00 +14°C° 0.1 mm 5 mps 749 mmHg 58%
12:00 +15°C° 0.3 mm 5 mps 749 mmHg 54%
13:00 +16°C° 0.3 mm 5 mps 748 mmHg 50%
14:00 +16°C° 0.3 mm 6 mps 748 mmHg 47%
15:00 +16°C° 0 mm 5 mps 748 mmHg 50%
16:00 +17°C° 0 mm 4 mps 748 mmHg 53%
17:00 +15°C° 0 mm 4 mps 748 mmHg 57%
18:00 +14°C° 0.1 mm 4 mps 749 mmHg 61%
19:00 +12°C° 0.1 mm 3 mps 749 mmHg 66%
20:00 +11°C° 0.1 mm 3 mps 749 mmHg 71%
21:00 +10°C° 0.1 mm 3 mps 749 mmHg 72%
22:00 +10°C° 0.1 mm 4 mps 749 mmHg 74%
23:00 +10°C° 0.1 mm 4 mps 749 mmHg 75%

23 April, Friday

Time Temperature Precipitation Wind Pressure Humidity
00:00 +8°C° 0 mm 4 mps 749 mmHg 76%
01:00 +8°C° 0 mm 4 mps 749 mmHg 77%
02:00 +8°C° 0 mm 4 mps 749 mmHg 79%
03:00 +7°C° 0 mm 4 mps 749 mmHg 79%
04:00 +7°C° 0 mm 4 mps 749 mmHg 80%
05:00 +7°C° 0 mm 4 mps 749 mmHg 81%
06:00 +8°C° 0 mm 5 mps 749 mmHg 76%
07:00 +10°C° 0 mm 5 mps 749 mmHg 72%
08:00 +11°C° 0 mm 6 mps 749 mmHg 67%
09:00 +14°C° 0 mm 6 mps 749 mmHg 61%
10:00 +15°C° 0 mm 7 mps 748 mmHg 55%
11:00 +17°C° 0 mm 7 mps 748 mmHg 49%
12:00 +17°C° 0 mm 7 mps 748 mmHg 50%
13:00 +16°C° 0 mm 7 mps 747 mmHg 50%
14:00 +16°C° 0 mm 7 mps 747 mmHg 50%
15:00 +16°C° 0.1 mm 7 mps 747 mmHg 52%
16:00 +16°C° 0.1 mm 7 mps 746 mmHg 53%
17:00 +15°C° 0.1 mm 7 mps 746 mmHg 55%
18:00 +14°C° 0.4 mm 7 mps 746 mmHg 62%
19:00 +11°C° 0.4 mm 6 mps 746 mmHg 70%
20:00 +10°C° 0.4 mm 5 mps 746 mmHg 78%
21:00 +8°C° 0.3 mm 5 mps 746 mmHg 82%
22:00 +7°C° 0.3 mm 4 mps 747 mmHg 86%
23:00 +6°C° 0.3 mm 4 mps 747 mmHg 91%

24 April, Saturday

Time Temperature Precipitation Wind Pressure Humidity
00:00 +5°C° 0.8 mm 4 mps 746 mmHg 92%
01:00 +4°C° 0.8 mm 4 mps 746 mmHg 93%
02:00 +2°C° 0.8 mm 5 mps 746 mmHg 94%
03:00 +3°C° 0.7 mm 4 mps 746 mmHg 93%
04:00 +3°C° 0.7 mm 4 mps 746 mmHg 91%
05:00 +4°C° 0.7 mm 4 mps 746 mmHg 89%
06:00 +4°C° 0.1 mm 4 mps 746 mmHg 85%
07:00 +5°C° 0.1 mm 5 mps 746 mmHg 80%
08:00 +5°C° 0.1 mm 5 mps 746 mmHg 76%
09:00 +5°C° 0.4 mm 6 mps 746 mmHg 73%
10:00 +5°C° 0.4 mm 7 mps 746 mmHg 69%
11:00 +5°C° 0.4 mm 9 mps 746 mmHg 66%
12:00 +5°C° 0.2 mm 9 mps 747 mmHg 69%
13:00 +3°C° 0.2 mm 9 mps 747 mmHg 72%
14:00 +2°C° 0.2 mm 9 mps 747 mmHg 75%
15:00 +2°C° 0.2 mm 8 mps 747 mmHg 71%
16:00 +4°C° 0.2 mm 8 mps 748 mmHg 66%
17:00 +4°C° 0.2 mm 7 mps 748 mmHg 62%
18:00 +3°C° 0 mm 6 mps 748 mmHg 65%
19:00 +2°C° 0 mm 5 mps 749 mmHg 69%
20:00 +1°C° 0 mm 4 mps 749 mmHg 72%
21:00 +1°C° 0 mm 4 mps 749 mmHg 74%
22:00 0°C° 0 mm 4 mps 749 mmHg 76%
23:00 +1°C° 0 mm 3 mps 749 mmHg 78%

25 April, Sunday

Time Temperature Precipitation Wind Pressure Humidity
00:00 -1°C° 0 mm 4 mps 749 mmHg 77%
01:00 -1°C° 0 mm 4 mps 749 mmHg 76%
02:00 -1°C° 0 mm 4 mps 749 mmHg 76%
03:00 0°C° 0 mm 3 mps 749 mmHg 79%
04:00 0°C° 0 mm 3 mps 749 mmHg 83%
05:00 0°C° 0 mm 3 mps 748 mmHg 87%
06:00 +1°C° 0.6 mm 3 mps 748 mmHg 89%
07:00 +2°C° 0.6 mm 3 mps 748 mmHg 91%
08:00 +3°C° 0.6 mm 3 mps 747 mmHg 94%
09:00 +4°C° 0.3 mm 4 mps 747 mmHg 89%
10:00 +5°C° 0.3 mm 5 mps 747 mmHg 84%
11:00 +4°C° 0.3 mm 6 mps 747 mmHg 79%
12:00 +4°C° 0.1 mm 6 mps 747 mmHg 79%
13:00 +4°C° 0.1 mm 6 mps 747 mmHg 79%
14:00 +3°C° 0.1 mm 6 mps 747 mmHg 78%
15:00 +4°C° 0.1 mm 6 mps 747 mmHg 71%
16:00 +4°C° 0.1 mm 6 mps 748 mmHg 65%
17:00 +5°C° 0.1 mm 6 mps 748 mmHg 58%
18:00 +3°C° 0 mm 5 mps 748 mmHg 64%
19:00 +3°C° 0 mm 4 mps 748 mmHg 70%
20:00 +1°C° 0 mm 3 mps 748 mmHg 75%
21:00 +1°C° 0 mm 3 mps 748 mmHg 77%
22:00 +1°C° 0 mm 3 mps 748 mmHg 78%
23:00 0°C° 0 mm 3 mps 749 mmHg 80%
Show more